{"data":{"norad_id":67875,"epoch":"2026-09-19T19:43:01.518240Z","epoch_age_seconds":121873,"freshness":"FRESH","line1":"1 67875U 26034AB  26262.82154535  .00013076  00000+0  43218-3 0  9996","line2":"2 67875  53.1597  20.7031 0000787  53.9893 306.1182 15.31716287 33780","mean_motion":15.31716287,"eccentricity":7.87e-5,"inclination_deg":53.1597,"raan_deg":20.7031,"arg_perigee_deg":53.9893,"mean_anomaly_deg":306.1182,"bstar":0.00043218,"rev_number":3378,"period_min":94.012188302859,"perigee_km":470.15244215774,"apogee_km":471.23044775498,"semimajor_km":6848.8284449564,"source":"CELESTRAK","updated_at":"2026-09-20T09:00:43.693915Z"}}